Time,TemperatureF,DewpointF,PressureIn,WindDirection,WindDirectionDegrees,WindSpeedMPH,WindSpeedGustMPH,Humidity,HourlyPrecipIn,Conditions,Clouds,dailyrainin,SoftwareType,DateUTC
2013-06-24 00:00:00,75.3,63.6,29.96,North,-999,0.0,0.0,67,0.00,,,-99.99,WeatherLink 5.5,2013-06-24 04:00:00,
2013-06-24 00:05:00,75.1,63.4,29.96,North,-999,0.0,0.0,67,0.00,,,-99.99,WeatherLink 5.5,2013-06-24 04:05:00,
2013-06-24 00:10:00,75.1,63.8,29.96,ESE,112,0.0,6.0,68,0.00,,,-99.99,WeatherLink 5.5,2013-06-24 04:10:00,
2013-06-24 00:15:00,75.1,63.8,29.96,ESE,112,0.0,6.0,68,0.00,,,-99.99,WeatherLink 5.5,2013-06-24 04:15:00,
2013-06-24 00:20:00,75.0,63.7,29.96,SE,135,0.0,1.0,68,0.00,,,-99.99,WeatherLink 5.5,2013-06-24 04:20:00,
2013-06-24 00:25:00,74.8,63.5,29.96,ESE,112,0.0,1.0,68,0.00,,,-99.99,WeatherLink 5.5,2013-06-24 04:25:00,
2013-06-24 00:30:00,74.8,63.5,29.96,ESE,112,0.0,1.0,68,0.00,,,-99.99,WeatherLink 5.5,2013-06-24 04:30:00,
2013-06-24 00:35:00,74.6,63.8,29.96,SE,135,0.0,1.0,69,0.00,,,-99.99,WeatherLink 5.5,2013-06-24 04:35:00,
2013-06-24 00:40:00,74.6,63.8,29.96,SE,135,0.0,1.0,69,0.00,,,-99.99,WeatherLink 5.5,2013-06-24 04:40:00,
2013-06-24 00:45:00,74.6,63.8,29.96,SE,135,0.0,1.0,69,0.00,,,-99.99,WeatherLink 5.5,2013-06-24 04:45:00,
2013-06-24 00:50:00,74.4,63.6,29.95,ESE,112,0.0,4.0,69,0.00,,,-99.99,WeatherLink 5.5,2013-06-24 04:50:00,
2013-06-24 00:55:00,74.4,63.6,29.95,ESE,112,0.0,4.0,69,0.00,,,-99.99,WeatherLink 5.5,2013-06-24 04:55:00,
2013-06-24 01:00:00,74.4,63.6,29.95,ESE,112,0.0,4.0,69,0.00,,,-99.99,WeatherLink 5.5,2013-06-24 05:00:00,
2013-06-24 01:05:00,74.6,63.8,29.95,SSE,157,1.0,7.0,69,0.00,,,-99.99,WeatherLink 5.5,2013-06-24 05:05:00,
2013-06-24 01:10:00,74.6,63.8,29.95,SSE,157,0.0,1.0,69,0.00,,,-99.99,WeatherLink 5.5,2013-06-24 05:10:00,
2013-06-24 01:15:00,74.6,63.8,29.95,SSE,157,0.0,1.0,69,0.00,,,-99.99,WeatherLink 5.5,2013-06-24 05:15:00,
2013-06-24 01:20:00,74.6,63.8,29.95,SSE,157,0.0,2.0,69,0.00,,,-99.99,WeatherLink 5.5,2013-06-24 05:20:00,
2013-06-24 01:25:00,74.6,63.8,29.95,SSE,157,0.0,1.0,69,0.00,,,-99.99,WeatherLink 5.5,2013-06-24 05:25:00,
2013-06-24 01:30:00,74.6,63.8,29.95,SSE,157,0.0,1.0,69,0.00,,,-99.99,WeatherLink 5.5,2013-06-24 05:30:00,
2013-06-24 01:35:00,74.4,63.6,29.94,SE,135,0.0,1.0,69,0.00,,,-99.99,WeatherLink 5.5,2013-06-24 05:35:00,
2013-06-24 01:40:00,74.4,63.6,29.94,SW,225,1.0,7.0,69,0.00,,,-99.99,WeatherLink 5.5,2013-06-24 05:40:00,
2013-06-24 01:45:00,74.4,63.6,29.95,SE,135,0.0,6.0,69,0.00,,,-99.99,WeatherLink 5.5,2013-06-24 05:45:00,
2013-06-24 01:46:00,74.4,63.6,29.94,SW,225,1.0,7.0,69,0.00,,,-99.99,WeatherLink 5.5,2013-06-24 05:46:00,
2013-06-24 01:50:00,74.4,63.6,29.95,SSE,157,0.0,2.0,69,0.00,,,-99.99,WeatherLink 5.5,2013-06-24 05:50:00,
2013-06-24 01:55:00,74.3,63.5,29.95,SSE,157,0.0,1.0,69,0.00,,,-99.99,WeatherLink 5.5,2013-06-24 05:55:00,
2013-06-24 02:00:00,74.3,63.9,29.94,SSE,157,0.0,4.0,70,0.00,,,-99.99,WeatherLink 5.5,2013-06-24 06:00:00,
2013-06-24 02:05:00,74.1,63.7,29.94,SSE,157,1.0,6.0,70,0.00,,,-99.99,WeatherLink 5.5,2013-06-24 06:05:00,
2013-06-24 02:10:00,74.1,63.7,29.94,South,180,0.0,6.0,70,0.00,,,-99.99,WeatherLink 5.5,2013-06-24 06:10:00,
2013-06-24 02:15:00,74.1,63.7,29.94,SSE,157,1.0,8.0,70,0.00,,,-99.99,WeatherLink 5.5,2013-06-24 06:15:00,
2013-06-24 02:20:00,73.9,63.5,29.94,North,-999,0.0,0.0,70,0.00,,,-99.99,WeatherLink 5.5,2013-06-24 06:20:00,
2013-06-24 02:25:00,73.9,63.5,29.94,ESE,112,0.0,1.0,70,0.00,,,-99.99,WeatherLink 5.5,2013-06-24 06:25:00,
2013-06-24 02:30:00,73.9,63.5,29.94,ESE,112,0.0,1.0,70,0.00,,,-99.99,WeatherLink 5.5,2013-06-24 06:30:00,
2013-06-24 02:35:00,73.9,63.5,29.94,West,270,0.0,6.0,70,0.00,,,-99.99,WeatherLink 5.5,2013-06-24 06:35:00,
2013-06-24 02:40:00,73.9,63.5,29.94,West,270,0.0,1.0,70,0.00,,,-99.99,WeatherLink 5.5,2013-06-24 06:40:00,
2013-06-24 02:45:00,73.9,63.5,29.94,West,270,0.0,1.0,70,0.00,,,-99.99,WeatherLink 5.5,2013-06-24 06:45:00,
2013-06-24 02:50:00,73.7,63.7,29.94,North,-999,0.0,0.0,71,0.00,,,-99.99,WeatherLink 5.5,2013-06-24 06:50:00,
2013-06-24 02:55:00,73.6,63.6,29.94,North,-999,0.0,0.0,71,0.00,,,-99.99,WeatherLink 5.5,2013-06-24 06:55:00,
2013-06-24 03:00:00,73.6,63.6,29.94,North,-999,0.0,0.0,71,0.00,,,-99.99,WeatherLink 5.5,2013-06-24 07:00:00,
2013-06-24 03:05:00,73.4,63.4,29.94,North,-999,0.0,0.0,71,0.00,,,-99.99,WeatherLink 5.5,2013-06-24 07:05:00,
2013-06-24 03:10:00,73.4,63.4,29.94,North,-999,0.0,0.0,71,0.00,,,-99.99,WeatherLink 5.5,2013-06-24 07:10:00,
2013-06-24 03:15:00,73.2,63.6,29.93,North,-999,0.0,0.0,72,0.00,,,-99.99,WeatherLink 5.5,2013-06-24 07:15:00,
2013-06-24 03:16:00,73.4,63.4,29.94,North,-999,0.0,0.0,71,0.00,,,-99.99,WeatherLink 5.5,2013-06-24 07:16:00,
2013-06-24 03:20:00,73.0,63.4,29.93,North,-999,0.0,0.0,72,0.00,,,-99.99,WeatherLink 5.5,2013-06-24 07:20:00,
2013-06-24 03:25:00,72.9,63.7,29.93,North,-999,0.0,0.0,73,0.00,,,-99.99,WeatherLink 5.5,2013-06-24 07:25:00,
2013-06-24 03:30:00,72.9,63.7,29.93,North,-999,0.0,0.0,73,0.00,,,-99.99,WeatherLink 5.5,2013-06-24 07:30:00,
2013-06-24 03:35:00,72.7,63.5,29.93,North,-999,0.0,0.0,73,0.00,,,-99.99,WeatherLink 5.5,2013-06-24 07:35:00,
2013-06-24 03:40:00,72.7,63.5,29.93,North,-999,0.0,0.0,73,0.00,,,-99.99,WeatherLink 5.5,2013-06-24 07:40:00,
2013-06-24 03:45:00,72.7,63.5,29.93,North,-999,0.0,0.0,73,0.00,,,-99.99,WeatherLink 5.5,2013-06-24 07:45:00,
2013-06-24 03:50:00,72.4,63.6,29.93,South,180,0.0,1.0,74,0.00,,,-99.99,WeatherLink 5.5,2013-06-24 07:50:00,
2013-06-24 03:55:00,72.2,63.4,29.93,North,-999,0.0,0.0,74,0.00,,,-99.99,WeatherLink 5.5,2013-06-24 07:55:00,
2013-06-24 04:00:00,72.2,63.4,29.93,South,180,0.0,2.0,74,0.00,,,-99.99,WeatherLink 5.5,2013-06-24 08:00:00,
2013-06-24 04:01:00,72.2,63.4,29.93,North,-999,0.0,0.0,74,0.00,,,-99.99,WeatherLink 5.5,2013-06-24 08:01:00,
2013-06-24 04:05:00,72.0,63.6,29.93,North,-999,0.0,0.0,75,0.00,,,-99.99,WeatherLink 5.5,2013-06-24 08:05:00,
2013-06-24 04:10:00,72.0,63.6,29.93,South,180,0.0,1.0,75,0.00,,,-99.99,WeatherLink 5.5,2013-06-24 08:10:00,
2013-06-24 04:15:00,72.0,63.6,29.93,South,180,0.0,1.0,75,0.00,,,-99.99,WeatherLink 5.5,2013-06-24 08:15:00,
2013-06-24 04:20:00,72.0,63.6,29.93,SE,135,0.0,4.0,75,0.00,,,-99.99,WeatherLink 5.5,2013-06-24 08:20:00,
2013-06-24 04:25:00,72.0,63.6,29.93,SSE,157,0.0,1.0,75,0.00,,,-99.99,WeatherLink 5.5,2013-06-24 08:25:00,
2013-06-24 04:30:00,72.0,63.6,29.93,SSE,157,0.0,1.0,75,0.00,,,-99.99,WeatherLink 5.5,2013-06-24 08:30:00,
2013-06-24 04:31:00,72.0,63.6,29.93,SSE,157,0.0,1.0,75,0.00,,,-99.99,WeatherLink 5.5,2013-06-24 08:31:00,
2013-06-24 04:35:00,72.0,63.6,29.93,North,-999,0.0,0.0,75,0.00,,,-99.99,WeatherLink 5.5,2013-06-24 08:35:00,
2013-06-24 04:40:00,71.8,63.4,29.93,SE,135,0.0,1.0,75,0.00,,,-99.99,WeatherLink 5.5,2013-06-24 08:40:00,
2013-06-24 04:45:00,71.8,63.4,29.93,SE,135,0.0,1.0,75,0.00,,,-99.99,WeatherLink 5.5,2013-06-24 08:45:00,
2013-06-24 04:50:00,71.8,63.8,29.93,SE,135,0.0,2.0,76,0.00,,,-99.99,WeatherLink 5.5,2013-06-24 08:50:00,
2013-06-24 04:55:00,71.7,63.7,29.93,SE,135,0.0,1.0,76,0.00,,,-99.99,WeatherLink 5.5,2013-06-24 08:55:00,
2013-06-24 05:00:00,71.7,63.7,29.92,North,-999,0.0,0.0,76,0.00,,,-99.99,WeatherLink 5.5,2013-06-24 09:00:00,
2013-06-24 05:01:00,71.7,63.7,29.93,SE,135,0.0,1.0,76,0.00,,,-99.99,WeatherLink 5.5,2013-06-24 09:01:00,
2013-06-24 05:05:00,71.7,63.7,29.92,North,-999,0.0,0.0,76,0.00,,,-99.99,WeatherLink 5.5,2013-06-24 09:05:00,
2013-06-24 05:10:00,71.5,63.5,29.92,SE,135,0.0,4.0,76,0.00,,,-99.99,WeatherLink 5.5,2013-06-24 09:10:00,
2013-06-24 05:15:00,71.5,63.5,29.92,SE,135,0.0,4.0,76,0.00,,,-99.99,WeatherLink 5.5,2013-06-24 09:15:00,
2013-06-24 05:20:00,71.3,63.7,29.92,North,-999,0.0,0.0,77,0.00,,,-99.99,WeatherLink 5.5,2013-06-24 09:20:00,
2013-06-24 05:25:00,71.3,63.7,29.92,SE,135,0.0,2.0,77,0.00,,,-99.99,WeatherLink 5.5,2013-06-24 09:25:00,
2013-06-24 05:30:00,71.3,63.7,29.92,SE,135,0.0,2.0,77,0.00,,,-99.99,WeatherLink 5.5,2013-06-24 09:30:00,
2013-06-24 05:35:00,71.2,63.6,29.92,North,-999,0.0,0.0,77,0.00,,,-99.99,WeatherLink 5.5,2013-06-24 09:35:00,
2013-06-24 05:40:00,71.2,63.6,29.92,ESE,112,0.0,1.0,77,0.00,,,-99.99,WeatherLink 5.5,2013-06-24 09:40:00,
2013-06-24 05:45:00,71.2,63.6,29.92,ESE,112,0.0,1.0,77,0.00,,,-99.99,WeatherLink 5.5,2013-06-24 09:45:00,
2013-06-24 05:50:00,71.2,64.0,29.92,North,-999,0.0,0.0,78,0.00,,,-99.99,WeatherLink 5.5,2013-06-24 09:50:00,
2013-06-24 05:55:00,71.2,64.0,29.92,North,-999,0.0,0.0,78,0.00,,,-99.99,WeatherLink 5.5,2013-06-24 09:55:00,
2013-06-24 06:00:00,71.2,64.0,29.92,SE,135,1.0,6.0,78,0.00,,,-99.99,WeatherLink 5.5,2013-06-24 10:00:00,
2013-06-24 06:05:00,71.3,64.1,29.92,SE,135,0.0,1.0,78,0.00,,,-99.99,WeatherLink 5.5,2013-06-24 10:05:00,
2013-06-24 06:10:00,71.3,64.1,29.92,North,-999,0.0,0.0,78,0.00,,,-99.99,WeatherLink 5.5,2013-06-24 10:10:00,
2013-06-24 06:15:00,71.5,64.3,29.92,SE,135,0.0,1.0,78,0.00,,,-99.99,WeatherLink 5.5,2013-06-24 10:15:00,
2013-06-24 06:20:00,71.7,64.1,29.92,ESE,112,0.0,4.0,77,0.00,,,-99.99,WeatherLink 5.5,2013-06-24 10:20:00,
2013-06-24 06:25:00,71.8,64.2,29.92,SSE,157,1.0,7.0,77,0.00,,,-99.99,WeatherLink 5.5,2013-06-24 10:25:00,
2013-06-24 06:30:00,71.8,64.2,29.92,SSE,157,1.0,7.0,77,0.00,,,-99.99,WeatherLink 5.5,2013-06-24 10:30:00,
2013-06-24 06:35:00,72.2,64.2,29.93,SSE,157,0.0,2.0,76,0.00,,,-99.99,WeatherLink 5.5,2013-06-24 10:35:00,
2013-06-24 06:40:00,72.4,64.4,29.93,South,180,0.0,4.0,76,0.00,,,-99.99,WeatherLink 5.5,2013-06-24 10:40:00,
2013-06-24 06:45:00,72.4,64.4,29.93,South,180,0.0,4.0,76,0.00,,,-99.99,WeatherLink 5.5,2013-06-24 10:45:00,
2013-06-24 06:50:00,72.5,64.1,29.93,SSE,157,0.0,1.0,75,0.00,,,-99.99,WeatherLink 5.5,2013-06-24 10:50:00,
2013-06-24 06:55:00,72.7,64.3,29.93,SSE,157,0.0,1.0,75,0.00,,,-99.99,WeatherLink 5.5,2013-06-24 10:55:00,
2013-06-24 07:00:00,72.7,64.3,29.93,SSE,157,0.0,1.0,75,0.00,,,-99.99,WeatherLink 5.5,2013-06-24 11:00:00,
2013-06-24 07:05:00,73.0,64.6,29.93,SE,135,0.0,4.0,75,0.00,,,-99.99,WeatherLink 5.5,2013-06-24 11:05:00,
2013-06-24 07:10:00,73.4,65.0,29.93,SE,135,0.0,1.0,75,0.00,,,-99.99,WeatherLink 5.5,2013-06-24 11:10:00,
2013-06-24 07:15:00,73.4,65.0,29.93,SE,135,0.0,1.0,75,0.00,,,-99.99,WeatherLink 5.5,2013-06-24 11:15:00,
2013-06-24 07:20:00,74.6,65.0,29.93,SSE,157,0.0,1.0,72,0.00,,,-99.99,WeatherLink 5.5,2013-06-24 11:20:00,
2013-06-24 07:25:00,75.1,65.1,29.93,SE,135,0.0,4.0,71,0.00,,,-99.99,WeatherLink 5.5,2013-06-24 11:25:00,
2013-06-24 07:30:00,75.1,65.1,29.93,SE,135,0.0,4.0,71,0.00,,,-99.99,WeatherLink 5.5,2013-06-24 11:30:00,
2013-06-24 07:35:00,75.8,65.3,29.92,SE,135,1.0,7.0,70,0.00,,,-99.99,WeatherLink 5.5,2013-06-24 11:35:00,
2013-06-24 07:40:00,76.2,65.3,29.92,SSE,157,0.0,1.0,69,0.00,,,-99.99,WeatherLink 5.5,2013-06-24 11:40:00,
2013-06-24 07:45:00,76.4,65.1,29.92,SE,135,2.0,8.0,68,0.00,,,-99.99,WeatherLink 5.5,2013-06-24 11:45:00,
2013-06-24 07:50:00,76.7,65.3,29.92,SSE,157,2.0,7.0,68,0.00,,,-99.99,WeatherLink 5.5,2013-06-24 11:50:00,
2013-06-24 07:55:00,77.1,64.9,29.92,ESE,112,0.0,6.0,66,0.00,,,-99.99,WeatherLink 5.5,2013-06-24 11:55:00,
2013-06-24 08:00:00,77.1,64.9,29.92,ESE,112,0.0,6.0,66,0.00,,,-99.99,WeatherLink 5.5,2013-06-24 12:00:00,
2013-06-24 08:05:00,78.2,65.5,29.92,North,-999,0.0,0.0,65,0.00,,,-99.99,WeatherLink 5.5,2013-06-24 12:05:00,
2013-06-24 08:10:00,78.5,65.3,29.92,SW,225,0.0,1.0,64,0.00,,,-99.99,WeatherLink 5.5,2013-06-24 12:10:00,
2013-06-24 08:15:00,78.5,65.3,29.92,SW,225,0.0,1.0,64,0.00,,,-99.99,WeatherLink 5.5,2013-06-24 12:15:00,
2013-06-24 08:20:00,79.3,64.7,29.92,WSW,247,2.0,9.0,61,0.00,,,-99.99,WeatherLink 5.5,2013-06-24 12:20:00,
2013-06-24 08:25:00,79.5,65.3,29.92,WSW,247,0.0,6.0,62,0.00,,,-99.99,WeatherLink 5.5,2013-06-24 12:25:00,
2013-06-24 08:30:00,79.5,65.3,29.92,WSW,247,0.0,6.0,62,0.00,,,-99.99,WeatherLink 5.5,2013-06-24 12:30:00,
2013-06-24 08:35:00,80.4,65.2,29.93,West,270,0.0,1.0,60,0.00,,,-99.99,WeatherLink 5.5,2013-06-24 12:35:00,
2013-06-24 08:40:00,80.8,65.1,29.93,SE,135,0.0,1.0,59,0.00,,,-99.99,WeatherLink 5.5,2013-06-24 12:40:00,
2013-06-24 08:45:00,80.8,65.1,29.93,SE,135,0.0,1.0,59,0.00,,,-99.99,WeatherLink 5.5,2013-06-24 12:45:00,
2013-06-24 08:50:00,81.9,65.7,29.92,North,-999,0.0,0.0,58,0.00,,,-99.99,WeatherLink 5.5,2013-06-24 12:50:00,
2013-06-24 08:55:00,82.3,65.0,29.92,SW,225,0.0,1.0,56,0.00,,,-99.99,WeatherLink 5.5,2013-06-24 12:55:00,
2013-06-24 09:00:00,82.3,65.0,29.92,SW,225,0.0,1.0,56,0.00,,,-99.99,WeatherLink 5.5,2013-06-24 13:00:00,
2013-06-24 09:05:00,82.5,66.2,29.92,SSE,157,0.0,7.0,58,0.00,,,-99.99,WeatherLink 5.5,2013-06-24 13:05:00,
2013-06-24 09:10:00,82.9,65.1,29.92,ESE,112,0.0,2.0,55,0.00,,,-99.99,WeatherLink 5.5,2013-06-24 13:10:00,
2013-06-24 09:15:00,82.9,65.1,29.92,ESE,112,0.0,2.0,55,0.00,,,-99.99,WeatherLink 5.5,2013-06-24 13:15:00,
2013-06-24 09:20:00,83.1,64.7,29.91,SW,225,1.0,9.0,54,0.00,,,-99.99,WeatherLink 5.5,2013-06-24 13:20:00,
2013-06-24 09:25:00,83.3,65.4,29.91,SW,225,1.0,9.0,55,0.00,,,-99.99,WeatherLink 5.5,2013-06-24 13:25:00,
2013-06-24 09:30:00,83.3,65.4,29.91,SW,225,1.0,9.0,55,0.00,,,-99.99,WeatherLink 5.5,2013-06-24 13:30:00,
2013-06-24 09:35:00,83.8,64.8,29.91,SE,135,0.0,4.0,53,0.00,,,-99.99,WeatherLink 5.5,2013-06-24 13:35:00,
2013-06-24 09:40:00,84.4,64.9,29.91,SE,135,0.0,1.0,52,0.00,,,-99.99,WeatherLink 5.5,2013-06-24 13:40:00,
2013-06-24 09:45:00,84.4,64.9,29.91,SE,135,0.0,1.0,52,0.00,,,-99.99,WeatherLink 5.5,2013-06-24 13:45:00,
2013-06-24 09:50:00,85.2,63.9,29.91,WSW,247,1.0,6.0,49,0.00,,,-99.99,WeatherLink 5.5,2013-06-24 13:50:00,
2013-06-24 09:55:00,85.4,64.6,29.91,WSW,247,0.0,2.0,50,0.00,,,-99.99,WeatherLink 5.5,2013-06-24 13:55:00,
2013-06-24 10:00:00,85.6,65.4,29.90,WNW,292,1.0,8.0,51,0.00,,,-99.99,WeatherLink 5.5,2013-06-24 14:00:00,
2013-06-24 10:01:00,85.4,64.6,29.91,WSW,247,0.0,2.0,50,0.00,,,-99.99,WeatherLink 5.5,2013-06-24 14:01:00,
2013-06-24 10:05:00,86.0,64.0,29.90,SW,225,2.0,7.0,48,0.00,,,-99.99,WeatherLink 5.5,2013-06-24 14:05:00,
2013-06-24 10:10:00,86.0,64.6,29.90,SW,225,1.0,6.0,49,0.00,,,-99.99,WeatherLink 5.5,2013-06-24 14:10:00,
2013-06-24 10:15:00,86.2,64.8,29.91,WSW,247,0.0,8.0,49,0.00,,,-99.99,WeatherLink 5.5,2013-06-24 14:15:00,
2013-06-24 10:16:00,86.0,64.6,29.90,SW,225,1.0,6.0,49,0.00,,,-99.99,WeatherLink 5.5,2013-06-24 14:16:00,
2013-06-24 10:20:00,86.7,64.7,29.91,WSW,247,1.0,7.0,48,0.00,,,-99.99,WeatherLink 5.5,2013-06-24 14:20:00,
2013-06-24 10:25:00,86.9,64.8,29.91,WSW,247,0.0,1.0,48,0.00,,,-99.99,WeatherLink 5.5,2013-06-24 14:25:00,
2013-06-24 10:30:00,86.9,64.8,29.91,WSW,247,0.0,1.0,48,0.00,,,-99.99,WeatherLink 5.5,2013-06-24 14:30:00,
2013-06-24 10:35:00,87.3,64.0,29.90,SW,225,2.0,8.0,46,0.00,,,-99.99,WeatherLink 5.5,2013-06-24 14:35:00,
2013-06-24 10:40:00,87.3,64.6,29.90,SW,225,0.0,4.0,47,0.00,,,-99.99,WeatherLink 5.5,2013-06-24 14:40:00,
2013-06-24 10:45:00,87.3,64.6,29.90,SW,225,0.0,4.0,47,0.00,,,-99.99,WeatherLink 5.5,2013-06-24 14:45:00,
2013-06-24 10:50:00,87.7,64.4,29.90,SW,225,1.0,6.0,46,0.00,,,-99.99,WeatherLink 5.5,2013-06-24 14:50:00,
2013-06-24 10:55:00,88.1,64.1,29.90,WSW,247,1.0,7.0,45,0.00,,,-99.99,WeatherLink 5.5,2013-06-24 14:55:00,
2013-06-24 11:00:00,88.1,64.7,29.90,West,270,1.0,9.0,46,0.00,,,-99.99,WeatherLink 5.5,2013-06-24 15:00:00,
2013-06-24 11:01:00,88.1,64.1,29.90,WSW,247,1.0,7.0,45,0.00,,,-99.99,WeatherLink 5.5,2013-06-24 15:01:00,
2013-06-24 11:05:00,88.3,61.6,29.90,WSW,247,4.0,11.0,41,0.00,,,-99.99,WeatherLink 5.5,2013-06-24 15:05:00,
2013-06-24 11:10:00,88.1,61.4,29.90,WSW,247,3.0,11.0,41,0.00,,,-99.99,WeatherLink 5.5,2013-06-24 15:10:00,
2013-06-24 11:15:00,88.1,61.4,29.90,WSW,247,1.0,7.0,41,0.00,,,-99.99,WeatherLink 5.5,2013-06-24 15:15:00,
2013-06-24 11:20:00,88.3,61.6,29.90,SSW,202,2.0,11.0,41,0.00,,,-99.99,WeatherLink 5.5,2013-06-24 15:20:00,
2013-06-24 11:25:00,88.5,62.5,29.90,WSW,247,2.0,7.0,42,0.00,,,-99.99,WeatherLink 5.5,2013-06-24 15:25:00,
2013-06-24 11:30:00,88.5,62.5,29.90,WSW,247,2.0,7.0,42,0.00,,,-99.99,WeatherLink 5.5,2013-06-24 15:30:00,
2013-06-24 11:35:00,89.2,63.1,29.90,WSW,247,1.0,9.0,42,0.00,,,-99.99,WeatherLink 5.5,2013-06-24 15:35:00,
2013-06-24 11:40:00,89.2,61.7,29.90,NW,315,2.0,13.0,40,0.00,,,-99.99,WeatherLink 5.5,2013-06-24 15:40:00,
2013-06-24 11:45:00,89.2,61.7,29.90,NW,315,2.0,13.0,40,0.00,,,-99.99,WeatherLink 5.5,2013-06-24 15:45:00,
2013-06-24 11:50:00,89.4,61.9,29.89,SW,225,1.0,7.0,40,0.00,,,-99.99,WeatherLink 5.5,2013-06-24 15:50:00,
2013-06-24 11:55:00,89.4,62.6,29.89,SW,225,2.0,10.0,41,0.00,,,-99.99,WeatherLink 5.5,2013-06-24 15:55:00,
2013-06-24 12:00:00,89.4,62.6,29.89,SW,225,2.0,10.0,41,0.00,,,-99.99,WeatherLink 5.5,2013-06-24 16:00:00,
2013-06-24 12:05:00,89.6,62.1,29.89,SW,225,3.0,14.0,40,0.00,,,-99.99,WeatherLink 5.5,2013-06-24 16:05:00,
2013-06-24 12:10:00,89.8,61.5,29.89,WSW,247,1.0,8.0,39,0.00,,,-99.99,WeatherLink 5.5,2013-06-24 16:10:00,
2013-06-24 12:15:00,90.2,61.2,29.89,SSW,202,1.0,9.0,38,0.00,,,-99.99,WeatherLink 5.5,2013-06-24 16:15:00,
2013-06-24 12:20:00,90.4,62.1,29.89,SW,225,3.0,8.0,39,0.00,,,-99.99,WeatherLink 5.5,2013-06-24 16:20:00,
2013-06-24 12:25:00,90.7,61.6,29.89,SW,225,2.0,13.0,38,0.00,,,-99.99,WeatherLink 5.5,2013-06-24 16:25:00,
2013-06-24 12:30:00,90.7,61.6,29.89,SW,225,2.0,13.0,38,0.00,,,-99.99,WeatherLink 5.5,2013-06-24 16:30:00,
2013-06-24 12:35:00,90.2,60.4,29.89,SW,225,2.0,9.0,37,0.00,,,-99.99,WeatherLink 5.5,2013-06-24 16:35:00,
2013-06-24 12:40:00,90.7,62.3,29.89,NW,315,1.0,8.0,39,0.00,,,-99.99,WeatherLink 5.5,2013-06-24 16:40:00,
2013-06-24 12:45:00,90.7,62.3,29.89,NW,315,1.0,8.0,39,0.00,,,-99.99,WeatherLink 5.5,2013-06-24 16:45:00,
2013-06-24 12:50:00,92.0,61.2,29.89,SSW,202,0.0,6.0,36,0.00,,,-99.99,WeatherLink 5.5,2013-06-24 16:50:00,
2013-06-24 12:55:00,92.4,63.1,29.89,SSW,202,0.0,2.0,38,0.00,,,-99.99,WeatherLink 5.5,2013-06-24 16:55:00,
2013-06-24 13:00:00,92.4,63.1,29.89,SSW,202,0.0,2.0,38,0.00,,,-99.99,WeatherLink 5.5,2013-06-24 17:00:00,
2013-06-24 13:05:00,92.6,61.0,29.89,ESE,112,1.0,6.0,35,0.00,,,-99.99,WeatherLink 5.5,2013-06-24 17:05:00,
2013-06-24 13:10:00,92.9,61.2,29.89,WSW,247,0.0,1.0,35,0.00,,,-99.99,WeatherLink 5.5,2013-06-24 17:10:00,
2013-06-24 13:15:00,92.9,61.2,29.89,WSW,247,0.0,1.0,35,0.00,,,-99.99,WeatherLink 5.5,2013-06-24 17:15:00,
2013-06-24 13:20:00,92.9,58.7,29.88,SW,225,3.0,9.0,32,0.00,,,-99.99,WeatherLink 5.5,2013-06-24 17:20:00,
2013-06-24 13:25:00,92.2,57.2,29.88,WSW,247,4.0,10.0,31,0.00,,,-99.99,WeatherLink 5.5,2013-06-24 17:25:00,
2013-06-24 13:30:00,92.2,57.2,29.88,WSW,247,4.0,10.0,31,0.00,,,-99.99,WeatherLink 5.5,2013-06-24 17:30:00,
2013-06-24 13:35:00,92.2,58.1,29.88,SW,225,3.0,11.0,32,0.00,,,-99.99,WeatherLink 5.5,2013-06-24 17:35:00,
2013-06-24 13:40:00,92.2,58.1,29.88,SW,225,2.0,10.0,32,0.00,,,-99.99,WeatherLink 5.5,2013-06-24 17:40:00,
2013-06-24 13:45:00,92.2,58.1,29.88,SW,225,2.0,10.0,32,0.00,,,-99.99,WeatherLink 5.5,2013-06-24 17:45:00,
2013-06-24 13:50:00,92.6,57.6,29.88,WSW,247,1.0,7.0,31,0.00,,,-99.99,WeatherLink 5.5,2013-06-24 17:50:00,
2013-06-24 13:55:00,92.6,57.6,29.88,West,270,3.0,9.0,31,0.00,,,-99.99,WeatherLink 5.5,2013-06-24 17:55:00,
2013-06-24 14:00:00,92.4,57.4,29.87,WNW,292,3.0,8.0,31,0.00,,,-99.99,WeatherLink 5.5,2013-06-24 18:00:00,
2013-06-24 14:05:00,92.4,57.4,29.87,SSW,202,1.0,7.0,31,0.00,,,-99.99,WeatherLink 5.5,2013-06-24 18:05:00,
2013-06-24 14:10:00,92.6,57.6,29.87,WSW,247,1.0,6.0,31,0.00,,,-99.99,WeatherLink 5.5,2013-06-24 18:10:00,
2013-06-24 14:15:00,92.6,57.6,29.87,WSW,247,1.0,6.0,31,0.00,,,-99.99,WeatherLink 5.5,2013-06-24 18:15:00,
2013-06-24 14:20:00,93.1,59.7,29.86,SW,225,1.0,4.0,33,0.00,,,-99.99,WeatherLink 5.5,2013-06-24 18:20:00,
2013-06-24 14:25:00,93.3,58.2,29.86,WSW,247,1.0,7.0,31,0.00,,,-99.99,WeatherLink 5.5,2013-06-24 18:25:00,
2013-06-24 14:30:00,93.3,58.2,29.86,WSW,247,1.0,7.0,31,0.00,,,-99.99,WeatherLink 5.5,2013-06-24 18:30:00,
2013-06-24 14:35:00,92.9,54.0,29.86,WNW,292,6.0,10.0,27,0.00,,,-99.99,WeatherLink 5.5,2013-06-24 18:35:00,
2013-06-24 14:40:00,92.6,56.6,29.86,WSW,247,2.0,11.0,30,0.00,,,-99.99,WeatherLink 5.5,2013-06-24 18:40:00,
2013-06-24 14:45:00,92.6,56.6,29.86,WSW,247,2.0,11.0,30,0.00,,,-99.99,WeatherLink 5.5,2013-06-24 18:45:00,
2013-06-24 14:50:00,92.9,61.2,29.85,West,270,1.0,8.0,35,0.00,,,-99.99,WeatherLink 5.5,2013-06-24 18:50:00,
2013-06-24 14:55:00,92.6,59.3,29.85,SW,225,3.0,10.0,33,0.00,,,-99.99,WeatherLink 5.5,2013-06-24 18:55:00,
2013-06-24 15:00:00,92.6,59.3,29.85,SW,225,3.0,10.0,33,0.00,,,-99.99,WeatherLink 5.5,2013-06-24 19:00:00,
2013-06-24 15:05:00,92.2,59.8,29.85,WSW,247,1.0,7.0,34,0.00,,,-99.99,WeatherLink 5.5,2013-06-24 19:05:00,
2013-06-24 15:10:00,92.2,60.6,29.85,WSW,247,4.0,11.0,35,0.00,,,-99.99,WeatherLink 5.5,2013-06-24 19:10:00,
2013-06-24 15:15:00,92.2,60.6,29.85,WSW,247,4.0,11.0,35,0.00,,,-99.99,WeatherLink 5.5,2013-06-24 19:15:00,
2013-06-24 15:20:00,92.2,58.1,29.85,West,270,1.0,11.0,32,0.00,,,-99.99,WeatherLink 5.5,2013-06-24 19:20:00,
2013-06-24 15:25:00,92.2,58.9,29.85,SW,225,3.0,10.0,33,0.00,,,-99.99,WeatherLink 5.5,2013-06-24 19:25:00,
2013-06-24 15:30:00,92.2,58.9,29.85,SW,225,3.0,10.0,33,0.00,,,-99.99,WeatherLink 5.5,2013-06-24 19:30:00,
2013-06-24 15:35:00,92.4,60.0,29.84,NNW,337,1.0,9.0,34,0.00,,,-99.99,WeatherLink 5.5,2013-06-24 19:35:00,
2013-06-24 15:40:00,92.4,60.0,29.84,WSW,247,3.0,10.0,34,0.00,,,-99.99,WeatherLink 5.5,2013-06-24 19:40:00,
2013-06-24 15:45:00,92.4,60.0,29.84,WSW,247,3.0,10.0,34,0.00,,,-99.99,WeatherLink 5.5,2013-06-24 19:45:00,
2013-06-24 15:50:00,92.6,60.1,29.83,West,270,0.0,1.0,34,0.00,,,-99.99,WeatherLink 5.5,2013-06-24 19:50:00,
2013-06-24 15:55:00,92.9,62.8,29.83,SW,225,0.0,4.0,37,0.00,,,-99.99,WeatherLink 5.5,2013-06-24 19:55:00,
2013-06-24 16:00:00,92.9,61.2,29.83,SW,225,2.0,14.0,35,0.00,,,-99.99,WeatherLink 5.5,2013-06-24 20:00:00,
2013-06-24 16:01:00,92.9,62.8,29.83,SW,225,0.0,4.0,37,0.00,,,-99.99,WeatherLink 5.5,2013-06-24 20:01:00,
2013-06-24 16:05:00,93.1,62.2,29.83,WSW,247,1.0,8.0,36,0.00,,,-99.99,WeatherLink 5.5,2013-06-24 20:05:00,
2013-06-24 16:10:00,92.9,62.8,29.83,WSW,247,3.0,8.0,37,0.00,,,-99.99,WeatherLink 5.5,2013-06-24 20:10:00,
2013-06-24 16:15:00,92.9,62.8,29.83,WSW,247,3.0,8.0,37,0.00,,,-99.99,WeatherLink 5.5,2013-06-24 20:15:00,
2013-06-24 16:20:00,92.2,61.4,29.82,East,90,1.0,6.0,36,0.00,,,-99.99,WeatherLink 5.5,2013-06-24 20:20:00,
2013-06-24 16:25:00,92.4,63.9,29.82,ESE,112,0.0,1.0,39,0.00,,,-99.99,WeatherLink 5.5,2013-06-24 20:25:00,
2013-06-24 16:30:00,92.4,63.9,29.82,ESE,112,0.0,1.0,39,0.00,,,-99.99,WeatherLink 5.5,2013-06-24 20:30:00,
2013-06-24 16:35:00,92.4,63.1,29.82,WSW,247,1.0,7.0,38,0.00,,,-99.99,WeatherLink 5.5,2013-06-24 20:35:00,
2013-06-24 16:40:00,92.2,63.7,29.82,West,270,1.0,6.0,39,0.00,,,-99.99,WeatherLink 5.5,2013-06-24 20:40:00,
2013-06-24 16:45:00,92.2,63.7,29.82,West,270,1.0,6.0,39,0.00,,,-99.99,WeatherLink 5.5,2013-06-24 20:45:00,
2013-06-24 16:50:00,92.2,59.8,29.82,SW,225,2.0,9.0,34,0.00,,,-99.99,WeatherLink 5.5,2013-06-24 20:50:00,
2013-06-24 16:55:00,92.2,59.8,29.82,SW,225,1.0,8.0,34,0.00,,,-99.99,WeatherLink 5.5,2013-06-24 20:55:00,
2013-06-24 17:00:00,92.2,59.8,29.82,SW,225,1.0,8.0,34,0.00,,,-99.99,WeatherLink 5.5,2013-06-24 21:00:00,
2013-06-24 17:05:00,92.0,60.4,29.82,SW,225,3.0,9.0,35,0.00,,,-99.99,WeatherLink 5.5,2013-06-24 21:05:00,
2013-06-24 17:10:00,92.2,60.6,29.82,WSW,247,0.0,7.0,35,0.00,,,-99.99,WeatherLink 5.5,2013-06-24 21:10:00,
2013-06-24 17:15:00,92.2,60.6,29.82,WSW,247,0.0,7.0,35,0.00,,,-99.99,WeatherLink 5.5,2013-06-24 21:15:00,
2013-06-24 17:20:00,92.4,60.8,29.82,SW,225,1.0,6.0,35,0.00,,,-99.99,WeatherLink 5.5,2013-06-24 21:20:00,
2013-06-24 17:25:00,92.4,60.8,29.82,SW,225,0.0,1.0,35,0.00,,,-99.99,WeatherLink 5.5,2013-06-24 21:25:00,
2013-06-24 17:30:00,92.4,60.8,29.82,SW,225,0.0,1.0,35,0.00,,,-99.99,WeatherLink 5.5,2013-06-24 21:30:00,
2013-06-24 17:35:00,92.2,61.4,29.82,West,270,0.0,6.0,36,0.00,,,-99.99,WeatherLink 5.5,2013-06-24 21:35:00,
2013-06-24 17:40:00,91.8,61.8,29.82,WSW,247,0.0,6.0,37,0.00,,,-99.99,WeatherLink 5.5,2013-06-24 21:40:00,
2013-06-24 17:45:00,91.8,61.8,29.82,WSW,247,0.0,6.0,37,0.00,,,-99.99,WeatherLink 5.5,2013-06-24 21:45:00,
2013-06-24 17:50:00,90.9,62.5,29.82,West,270,0.0,7.0,39,0.00,,,-99.99,WeatherLink 5.5,2013-06-24 21:50:00,
2013-06-24 17:55:00,90.9,62.5,29.82,SW,225,1.0,7.0,39,0.00,,,-99.99,WeatherLink 5.5,2013-06-24 21:55:00,
2013-06-24 18:00:00,90.9,62.5,29.82,SW,225,1.0,7.0,39,0.00,,,-99.99,WeatherLink 5.5,2013-06-24 22:00:00,
2013-06-24 18:05:00,90.2,63.3,29.82,WSW,247,0.0,2.0,41,0.00,,,-99.99,WeatherLink 5.5,2013-06-24 22:05:00,
2013-06-24 18:10:00,90.0,63.8,29.82,North,-999,0.0,0.0,42,0.00,,,-99.99,WeatherLink 5.5,2013-06-24 22:10:00,
2013-06-24 18:15:00,90.0,63.8,29.82,North,-999,0.0,0.0,42,0.00,,,-99.99,WeatherLink 5.5,2013-06-24 22:15:00,
2013-06-24 18:20:00,89.2,63.8,29.82,North,-999,0.0,0.0,43,0.00,,,-99.99,WeatherLink 5.5,2013-06-24 22:20:00,
2013-06-24 18:25:00,88.7,65.3,29.82,SSW,202,0.0,8.0,46,0.00,,,-99.99,WeatherLink 5.5,2013-06-24 22:25:00,
2013-06-24 18:30:00,87.9,61.9,29.84,SW,225,4.0,15.0,42,0.00,,,-99.99,WeatherLink 5.5,2013-06-24 22:30:00,
2013-06-24 18:31:00,88.7,65.3,29.82,SSW,202,0.0,8.0,46,0.00,,,-99.99,WeatherLink 5.5,2013-06-24 22:31:00,
2013-06-24 18:35:00,86.4,58.5,29.84,WSW,247,2.0,9.0,39,0.00,,,-99.99,WeatherLink 5.5,2013-06-24 22:35:00,
2013-06-24 18:40:00,85.4,53.8,29.84,WSW,247,4.0,9.0,34,0.00,,,-99.99,WeatherLink 5.5,2013-06-24 22:40:00,
2013-06-24 18:45:00,84.4,53.8,29.84,WNW,292,2.0,11.0,35,0.00,,,-99.99,WeatherLink 5.5,2013-06-24 22:45:00,
2013-06-24 18:50:00,82.9,61.8,29.84,West,270,3.0,7.0,49,0.00,,,-99.99,WeatherLink 5.5,2013-06-24 22:50:00,
2013-06-24 18:55:00,80.9,62.2,29.84,SW,225,1.0,8.0,53,0.00,,,-99.99,WeatherLink 5.5,2013-06-24 22:55:00,
2013-06-24 19:00:00,80.9,62.2,29.84,SW,225,1.0,8.0,53,0.00,,,-99.99,WeatherLink 5.5,2013-06-24 23:00:00,
2013-06-24 19:05:00,79.1,64.0,29.84,North,-999,0.0,0.0,60,0.00,,,-99.99,WeatherLink 5.5,2013-06-24 23:05:00,
2013-06-24 19:10:00,78.5,63.0,29.84,WSW,247,0.0,1.0,59,0.00,,,-99.99,WeatherLink 5.5,2013-06-24 23:10:00,
2013-06-24 19:15:00,78.5,63.0,29.84,WSW,247,0.0,1.0,59,0.00,,,-99.99,WeatherLink 5.5,2013-06-24 23:15:00,
2013-06-24 19:20:00,77.3,63.3,29.85,SW,225,3.0,7.0,62,0.00,,,-99.99,WeatherLink 5.5,2013-06-24 23:20:00,
2013-06-24 19:25:00,76.4,62.4,29.85,SSW,202,2.0,8.0,62,0.00,,,-99.99,WeatherLink 5.5,2013-06-24 23:25:00,
2013-06-24 19:30:00,76.4,62.4,29.85,SSW,202,2.0,8.0,62,0.00,,,-99.99,WeatherLink 5.5,2013-06-24 23:30:00,
2013-06-24 19:35:00,75.7,60.8,29.87,WSW,247,1.0,7.0,60,0.00,,,-99.99,WeatherLink 5.5,2013-06-24 23:35:00,
2013-06-24 19:40:00,75.7,60.8,29.87,WSW,247,1.0,8.0,60,0.00,,,-99.99,WeatherLink 5.5,2013-06-24 23:40:00,
2013-06-24 19:45:00,75.5,61.6,29.87,North,-999,0.0,0.0,62,0.00,,,-99.99,WeatherLink 5.5,2013-06-24 23:45:00,
2013-06-24 19:50:00,75.5,62.0,29.87,North,-999,0.0,0.0,63,0.00,,,-99.99,WeatherLink 5.5,2013-06-24 23:50:00,
2013-06-24 19:55:00,75.3,61.8,29.87,SW,225,1.0,7.0,63,0.00,,,-99.99,WeatherLink 5.5,2013-06-24 23:55:00,
2013-06-24 20:00:00,75.3,61.8,29.87,SW,225,1.0,7.0,63,0.00,,,-99.99,WeatherLink 5.5,2013-06-25 00:00:00,
2013-06-24 20:05:00,75.0,62.0,29.88,North,-999,0.0,0.0,64,0.00,,,-99.99,WeatherLink 5.5,2013-06-25 00:05:00,
2013-06-24 20:10:00,74.8,61.8,29.88,SW,225,0.0,1.0,64,0.00,,,-99.99,WeatherLink 5.5,2013-06-25 00:10:00,
2013-06-24 20:15:00,74.8,61.8,29.88,SW,225,0.0,1.0,64,0.00,,,-99.99,WeatherLink 5.5,2013-06-25 00:15:00,
2013-06-24 20:20:00,74.3,61.8,29.88,WSW,247,0.0,4.0,65,0.01,,,-99.99,WeatherLink 5.5,2013-06-25 00:20:00,
2013-06-24 20:25:00,74.1,62.4,29.88,WSW,247,0.0,1.0,67,0.01,,,-99.99,WeatherLink 5.5,2013-06-25 00:25:00,
2013-06-24 20:30:00,74.1,62.4,29.88,WSW,247,0.0,1.0,67,0.01,,,-99.99,WeatherLink 5.5,2013-06-25 00:30:00,
2013-06-24 20:35:00,73.2,63.2,29.89,North,-999,0.0,0.0,71,0.02,,,-99.99,WeatherLink 5.5,2013-06-25 00:35:00,
2013-06-24 20:40:00,72.7,63.5,29.89,North,-999,0.0,0.0,73,0.02,,,-99.99,WeatherLink 5.5,2013-06-25 00:40:00,
2013-06-24 20:45:00,72.7,63.5,29.89,North,-999,0.0,0.0,73,0.02,,,-99.99,WeatherLink 5.5,2013-06-25 00:45:00,
2013-06-24 20:50:00,72.2,63.4,29.89,WSW,247,0.0,1.0,74,0.03,,,-99.99,WeatherLink 5.5,2013-06-25 00:50:00,
2013-06-24 20:55:00,72.0,63.6,29.89,North,-999,0.0,0.0,75,0.03,,,-99.99,WeatherLink 5.5,2013-06-25 00:55:00,
2013-06-24 21:00:00,72.0,63.6,29.89,North,-999,0.0,0.0,75,0.03,,,-99.99,WeatherLink 5.5,2013-06-25 01:00:00,
2013-06-24 21:05:00,71.5,63.9,29.88,WSW,247,0.0,1.0,77,0.03,,,-99.99,WeatherLink 5.5,2013-06-25 01:05:00,
2013-06-24 21:10:00,71.3,63.7,29.88,WSW,247,0.0,1.0,77,0.03,,,-99.99,WeatherLink 5.5,2013-06-25 01:10:00,
2013-06-24 21:15:00,71.2,64.0,29.89,North,-999,0.0,0.0,78,0.04,,,-99.99,WeatherLink 5.5,2013-06-25 01:15:00,
2013-06-24 21:16:00,71.3,63.7,29.88,WSW,247,0.0,1.0,77,0.03,,,-99.99,WeatherLink 5.5,2013-06-25 01:16:00,
2013-06-24 21:20:00,71.0,64.2,29.89,North,-999,0.0,0.0,79,0.03,,,-99.99,WeatherLink 5.5,2013-06-25 01:20:00,
2013-06-24 21:25:00,70.8,64.0,29.89,North,-999,0.0,0.0,79,0.03,,,-99.99,WeatherLink 5.5,2013-06-25 01:25:00,
2013-06-24 21:30:00,70.6,63.8,29.91,North,-999,0.0,0.0,79,0.03,,,-99.99,WeatherLink 5.5,2013-06-25 01:30:00,
2013-06-24 21:35:00,70.6,64.1,29.91,North,-999,0.0,0.0,80,0.02,,,-99.99,WeatherLink 5.5,2013-06-25 01:35:00,
2013-06-24 21:40:00,70.5,64.0,29.91,North,-999,0.0,0.0,80,0.02,,,-99.99,WeatherLink 5.5,2013-06-25 01:40:00,
2013-06-24 21:45:00,70.5,64.0,29.91,North,-999,0.0,0.0,80,0.02,,,-99.99,WeatherLink 5.5,2013-06-25 01:45:00,
2013-06-24 21:50:00,70.5,64.0,29.90,North,-999,0.0,0.0,80,0.01,,,-99.99,WeatherLink 5.5,2013-06-25 01:50:00,
2013-06-24 21:55:00,70.3,63.8,29.90,North,-999,0.0,0.0,80,0.01,,,-99.99,WeatherLink 5.5,2013-06-25 01:55:00,
2013-06-24 22:00:00,70.3,63.8,29.90,North,-999,0.0,0.0,80,0.01,,,-99.99,WeatherLink 5.5,2013-06-25 02:00:00,
2013-06-24 22:05:00,70.3,63.8,29.90,North,-999,0.0,0.0,80,0.01,,,-99.99,WeatherLink 5.5,2013-06-25 02:05:00,
2013-06-24 22:10:00,70.3,63.8,29.90,North,-999,0.0,0.0,80,0.01,,,-99.99,WeatherLink 5.5,2013-06-25 02:10:00,
2013-06-24 22:15:00,70.3,63.8,29.89,North,-999,0.0,0.0,80,0.00,,,-99.99,WeatherLink 5.5,2013-06-25 02:15:00,
2013-06-24 22:20:00,70.1,63.6,29.89,North,-999,0.0,0.0,80,0.00,,,-99.99,WeatherLink 5.5,2013-06-25 02:20:00,
2013-06-24 22:25:00,70.0,63.9,29.89,North,-999,0.0,0.0,81,0.00,,,-99.99,WeatherLink 5.5,2013-06-25 02:25:00,
2013-06-24 22:30:00,70.0,63.9,29.89,North,-999,0.0,0.0,81,0.00,,,-99.99,WeatherLink 5.5,2013-06-25 02:30:00,
2013-06-24 22:35:00,70.0,63.9,29.89,North,-999,0.0,0.0,81,0.00,,,-99.99,WeatherLink 5.5,2013-06-25 02:35:00,
2013-06-24 22:40:00,70.0,63.9,29.89,North,-999,0.0,0.0,81,0.00,,,-99.99,WeatherLink 5.5,2013-06-25 02:40:00,
2013-06-24 22:45:00,70.0,63.9,29.89,North,-999,0.0,0.0,81,0.00,,,-99.99,WeatherLink 5.5,2013-06-25 02:45:00,
2013-06-24 22:50:00,70.0,63.9,29.88,North,-999,0.0,0.0,81,0.00,,,-99.99,WeatherLink 5.5,2013-06-25 02:50:00,
2013-06-24 22:55:00,70.0,64.2,29.88,North,-999,0.0,0.0,82,0.00,,,-99.99,WeatherLink 5.5,2013-06-25 02:55:00,
2013-06-24 23:00:00,70.0,64.2,29.88,North,-999,0.0,0.0,82,0.00,,,-99.99,WeatherLink 5.5,2013-06-25 03:00:00,
2013-06-24 23:05:00,70.0,64.2,29.88,North,-999,0.0,0.0,82,0.00,,,-99.99,WeatherLink 5.5,2013-06-25 03:05:00,
2013-06-24 23:10:00,70.0,64.2,29.88,North,-999,0.0,0.0,82,0.00,,,-99.99,WeatherLink 5.5,2013-06-25 03:10:00,
2013-06-24 23:15:00,69.8,64.1,29.87,WSW,247,0.0,1.0,82,0.00,,,-99.99,WeatherLink 5.5,2013-06-25 03:15:00,
2013-06-24 23:20:00,69.8,64.1,29.87,North,-999,0.0,0.0,82,0.00,,,-99.99,WeatherLink 5.5,2013-06-25 03:20:00,
2013-06-24 23:25:00,69.8,64.1,29.87,North,-999,0.0,0.0,82,0.00,,,-99.99,WeatherLink 5.5,2013-06-25 03:25:00,
2013-06-24 23:30:00,69.6,63.9,29.87,North,-999,0.0,0.0,82,0.00,,,-99.99,WeatherLink 5.5,2013-06-25 03:30:00,
2013-06-24 23:35:00,69.6,63.9,29.87,WSW,247,0.0,1.0,82,0.00,,,-99.99,WeatherLink 5.5,2013-06-25 03:35:00,
2013-06-24 23:40:00,69.5,63.8,29.87,North,-999,0.0,0.0,82,0.00,,,-99.99,WeatherLink 5.5,2013-06-25 03:40:00,
2013-06-24 23:45:00,69.5,63.8,29.87,North,-999,0.0,0.0,82,0.00,,,-99.99,WeatherLink 5.5,2013-06-25 03:45:00,
2013-06-24 23:50:00,69.5,63.8,29.87,North,-999,0.0,0.0,82,0.00,,,-99.99,WeatherLink 5.5,2013-06-25 03:50:00,
2013-06-24 23:55:00,69.5,63.8,29.87,North,-999,0.0,0.0,82,0.00,,,-99.99,WeatherLink 5.5,2013-06-25 03:55:00,